Time,TemperatureF,DewpointF,PressureIn,WindDirection,WindDirectionDegrees,WindSpeedMPH,WindSpeedGustMPH,Humidity,HourlyPrecipIn,Conditions,Clouds,dailyrainin,SolarRadiationWatts/m^2,SoftwareType,DateUTC
2013-08-28 10:00:00,78.0,47.0,-100.00,SSE,157,7.0,7.0,33,0.00,,,0.00,402.000000,,2013-08-28 17:00:00,
2013-08-28 10:24:00,78.0,47.0,-100.00,SSE,157,7.0,7.0,33,0.00,,,0.00,402.000000,,2013-08-28 17:24:00,
2013-08-28 10:35:00,78.0,47.0,-100.00,SSE,157,7.0,7.0,33,0.00,,,0.00,402.000000,,2013-08-28 17:35:00,
2013-08-28 10:44:00,78.0,47.0,-100.00,SSE,157,7.0,7.0,33,0.00,,,0.00,402.000000,,2013-08-28 17:44:00,
2013-08-28 10:52:00,78.0,47.0,-100.00,SSE,157,7.0,7.0,33,0.00,,,0.00,402.000000,,2013-08-28 17:52:00,
2013-08-28 11:00:00,78.0,47.0,-100.00,South,183,7.0,16.0,33,0.00,,,0.00,507.000000,,2013-08-28 18:00:00,
2013-08-28 11:22:00,78.0,47.0,-100.00,South,183,7.0,16.0,33,0.00,,,0.00,507.000000,,2013-08-28 18:22:00,
2013-08-28 11:32:00,78.0,47.0,-100.00,South,183,7.0,16.0,33,0.00,,,0.00,507.000000,,2013-08-28 18:32:00,
2013-08-28 11:42:00,78.0,47.0,-100.00,South,183,7.0,16.0,33,0.00,,,0.00,507.000000,,2013-08-28 18:42:00,
2013-08-28 11:53:00,78.0,47.0,-100.00,South,183,7.0,16.0,33,0.00,,,0.00,507.000000,,2013-08-28 18:53:00,
2013-08-28 12:00:00,82.0,48.0,-100.00,ENE,74,5.0,20.0,31,0.00,,,0.00,789.000000,,2013-08-28 19:00:00,
2013-08-28 12:22:00,82.0,48.0,-100.00,ENE,74,5.0,20.0,31,0.00,,,0.00,789.000000,,2013-08-28 19:22:00,
2013-08-28 12:32:00,82.0,48.0,-100.00,ENE,74,5.0,20.0,31,0.00,,,0.00,789.000000,,2013-08-28 19:32:00,
2013-08-28 12:42:00,82.0,48.0,-100.00,ENE,74,5.0,20.0,31,0.00,,,0.00,789.000000,,2013-08-28 19:42:00,
2013-08-28 12:52:00,82.0,48.0,-100.00,ENE,74,5.0,20.0,31,0.00,,,0.00,789.000000,,2013-08-28 19:52:00,
2013-08-28 13:00:00,84.0,48.0,-100.00,SSE,167,9.0,20.0,29,0.00,,,0.00,925.000000,,2013-08-28 20:00:00,
2013-08-28 13:23:00,84.0,48.0,-100.00,SSE,167,9.0,20.0,29,0.00,,,0.00,925.000000,,2013-08-28 20:23:00,
2013-08-28 13:32:00,84.0,48.0,-100.00,SSE,167,9.0,20.0,29,0.00,,,0.00,925.000000,,2013-08-28 20:32:00,
2013-08-28 13:43:00,84.0,48.0,-100.00,SSE,167,9.0,20.0,29,0.00,,,0.00,925.000000,,2013-08-28 20:43:00,
2013-08-28 13:52:00,84.0,48.0,-100.00,SSE,167,9.0,20.0,29,0.00,,,0.00,925.000000,,2013-08-28 20:52:00,
2013-08-28 14:00:00,84.0,43.0,-100.00,SE,142,5.0,17.0,24,0.00,,,0.00,980.000000,,2013-08-28 21:00:00,
2013-08-28 14:22:00,84.0,43.0,-100.00,SE,142,5.0,17.0,24,0.00,,,0.00,980.000000,,2013-08-28 21:22:00,
2013-08-28 14:35:00,84.0,43.0,-100.00,SE,142,5.0,17.0,24,0.00,,,0.00,980.000000,,2013-08-28 21:35:00,
2013-08-28 14:44:00,84.0,43.0,-100.00,SE,142,5.0,17.0,24,0.00,,,0.00,980.000000,,2013-08-28 21:44:00,
2013-08-28 14:57:00,84.0,43.0,-100.00,SE,142,5.0,17.0,24,0.00,,,0.00,980.000000,,2013-08-28 21:57:00,
2013-08-28 15:00:00,87.0,48.0,-100.00,SSE,160,5.0,15.0,26,0.00,,,0.00,974.000000,,2013-08-28 22:00:00,
2013-08-28 15:25:00,87.0,48.0,-100.00,SSE,160,5.0,15.0,26,0.00,,,0.00,974.000000,,2013-08-28 22:25:00,
2013-08-28 15:34:00,87.0,48.0,-100.00,SSE,160,5.0,15.0,26,0.00,,,0.00,974.000000,,2013-08-28 22:34:00,
2013-08-28 15:43:00,87.0,48.0,-100.00,SSE,160,5.0,15.0,26,0.00,,,0.00,974.000000,,2013-08-28 22:43:00,
2013-08-28 15:54:00,87.0,48.0,-100.00,SSE,160,5.0,15.0,26,0.00,,,0.00,974.000000,,2013-08-28 22:54:00,
2013-08-28 16:00:00,84.0,48.0,-100.00,South,177,8.0,22.0,29,0.00,,,0.00,899.000000,,2013-08-28 23:00:00,
2013-08-28 16:22:00,84.0,48.0,-100.00,South,177,8.0,22.0,29,0.00,,,0.00,899.000000,,2013-08-28 23:22:00,
2013-08-28 16:33:00,84.0,48.0,-100.00,South,177,8.0,22.0,29,0.00,,,0.00,899.000000,,2013-08-28 23:33:00,
2013-08-28 16:42:00,84.0,48.0,-100.00,South,177,8.0,22.0,29,0.00,,,0.00,899.000000,,2013-08-28 23:42:00,
2013-08-28 16:53:00,84.0,48.0,-100.00,South,177,8.0,22.0,29,0.00,,,0.00,899.000000,,2013-08-28 23:53:00,
2013-08-28 17:00:00,81.0,46.0,-100.00,South,176,10.0,21.0,29,0.00,,,0.00,551.000000,,2013-08-29 00:00:00,
2013-08-28 18:00:00,82.0,38.0,-100.00,WNW,282,4.0,24.0,21,0.00,,,0.00,467.000000,,2013-08-29 01:00:00,
2013-08-28 18:52:00,82.0,38.0,-100.00,WNW,282,4.0,24.0,21,0.00,,,0.00,467.000000,,2013-08-29 01:52:00,
2013-08-28 19:00:00,86.0,51.0,-100.00,WNW,296,4.0,22.0,30,0.00,,,0.00,316.000000,,2013-08-29 02:00:00,
2013-08-28 19:22:00,86.0,51.0,-100.00,WNW,296,4.0,22.0,30,0.00,,,0.00,316.000000,,2013-08-29 02:22:00,
2013-08-28 19:32:00,86.0,51.0,-100.00,WNW,296,4.0,22.0,30,0.00,,,0.00,316.000000,,2013-08-29 02:32:00,
2013-08-28 19:43:00,86.0,51.0,-100.00,WNW,296,4.0,22.0,30,0.00,,,0.00,316.000000,,2013-08-29 02:43:00,
2013-08-28 19:52:00,86.0,51.0,-100.00,WNW,296,4.0,22.0,30,0.00,,,0.00,316.000000,,2013-08-29 02:52:00,
2013-08-28 20:00:00,78.0,50.0,-100.00,SW,235,5.0,13.0,38,-99.99,,,0.00,127.000000,,2013-08-29 03:00:00,
2013-08-28 20:23:00,78.0,50.0,-100.00,SW,235,5.0,13.0,38,-99.99,,,0.00,127.000000,,2013-08-29 03:23:00,
2013-08-28 20:37:00,78.0,50.0,-100.00,SW,235,5.0,13.0,38,-99.99,,,0.00,127.000000,,2013-08-29 03:37:00,
2013-08-28 20:45:00,78.0,50.0,-100.00,SW,235,5.0,13.0,38,-99.99,,,0.00,127.000000,,2013-08-29 03:45:00,
2013-08-28 20:57:00,78.0,50.0,-100.00,SW,235,5.0,13.0,38,-99.99,,,0.00,127.000000,,2013-08-29 03:57:00,
2013-08-28 21:00:00,73.0,48.0,-100.00,WNW,303,1.0,14.0,41,0.00,,,0.00,4.000000,,2013-08-29 04:00:00,
2013-08-28 21:28:00,73.0,48.0,-100.00,WNW,303,1.0,14.0,41,0.00,,,0.00,4.000000,,2013-08-29 04:28:00,
2013-08-28 21:37:00,73.0,48.0,-100.00,WNW,303,1.0,14.0,41,0.00,,,0.00,4.000000,,2013-08-29 04:37:00,
2013-08-28 21:46:00,73.0,48.0,-100.00,WNW,303,1.0,14.0,41,0.00,,,0.00,4.000000,,2013-08-29 04:46:00,
2013-08-28 21:54:00,73.0,48.0,-100.00,WNW,303,1.0,14.0,41,0.00,,,0.00,4.000000,,2013-08-29 04:54:00,
2013-08-28 22:00:00,71.0,47.0,-100.00,West,279,0.0,14.0,43,0.00,,,0.00,0.000000,,2013-08-29 05:00:00,
2013-08-28 22:23:00,71.0,47.0,-100.00,West,279,0.0,14.0,43,0.00,,,0.00,0.000000,,2013-08-29 05:23:00,
2013-08-28 22:34:00,71.0,47.0,-100.00,West,279,0.0,14.0,43,0.00,,,0.00,0.000000,,2013-08-29 05:34:00,
2013-08-28 22:42:00,71.0,47.0,-100.00,West,279,0.0,14.0,43,0.00,,,0.00,0.000000,,2013-08-29 05:42:00,
2013-08-28 22:52:00,71.0,47.0,-100.00,West,279,0.0,14.0,43,0.00,,,0.00,0.000000,,2013-08-29 05:52:00,
2013-08-28 23:00:00,69.0,46.0,-100.00,WSW,243,2.0,7.0,44,0.00,,,0.00,0.000000,,2013-08-29 06:00:00,
2013-08-28 23:43:00,69.0,46.0,-100.00,WSW,243,2.0,7.0,44,0.00,,,0.00,0.000000,,2013-08-29 06:43:00,
2013-08-28 23:52:00,69.0,46.0,-100.00,WSW,243,2.0,7.0,44,0.00,,,0.00,0.000000,,2013-08-29 06:52:00,